Regional Weather Roundup
Issued by NWS

Home | Current Version | Previous Version | Graphics & Text | Print | Product List | Glossary On
Versions: 1 2 3 4 5 6 7 8 9 10 11 12 13 14 15 16 17 18 19 20 21 22 23 24 25 26 27 28 29 30 31 32 33 34 35 36 37 38 39 40 41 42 43 44 45 46 47 48 49 50
000
ASUS45 KTFX 311310
RWRMT
MONTANA REGIONAL WEATHER ROUNDUP
NATIONAL WEATHER SERVICE GREAT FALLS MT
700 AM MDT FRI JUL 31 2015

NOTE: "FAIR" INDICATES FEW OR NO CLOUDS BELOW 12000 FEET WITH NO
SIGNIFICANT WEATHER AND/OR OBSTRUCTIONS TO VISIBILITY.

MTZ001>007-043-311400-
WEST OF THE DIVIDE

CITY           SKY/WX    TMP DP  RH WIND       PRES   REMARKS
KALISPELL      SUNNY     45  38  76 CALM      30.20R
MISSOULA       PTCLDY    51  41  68 CALM      30.26R
BUTTE          CLEAR     46  39  76 S5        30.37S
MULLAN PASS    PTCLDY    67  28  23 S3        30.36S
DEER LODGE       N/A     48  39  71 W3        30.36R
EUREKA           N/A     48  37  66 CALM      30.21R
HAMILTON         N/A     57  41  54 S5        30.26R
LIBBY            N/A     46  37  71 CALM      30.20S
PLAINS           N/A     48  37  65 CALM      30.19S
RONAN            N/A     49  43  80 CALM      30.23R
$$

MTZ008-052>055-311400-
SOUTHWEST MONTANA

CITY           SKY/WX    TMP DP  RH WIND       PRES   REMARKS
BOZEMAN        CLEAR     50  45  83 SE5       30.31R
DILLON         CLEAR     52  39  61 SW13      30.34R
THREE FORKS      N/A     50  30  46 CALM      30.26R
TWIN BRIDGES     N/A     47  39  73 SE2       30.28
$$

MTZ009-010-012-014-046-048-049-054-311400-
EAST SLOPES AND CENTRAL MONTANA

CITY           SKY/WX    TMP DP  RH WIND       PRES   REMARKS
CUT BANK       CLEAR     56  38  50 NW7       30.20S
GREAT FALLS    CLEAR     55  43  63 W7        30.20R
MALMSTROM AFB  CLEAR     59  44  59 W5        30.20R
HELENA         CLEAR     56  42  59 CALM      30.27R
$$

MTZ011-013-016-021-045-047-050-051-311400-
NORTH CENTRAL MONTANA

CITY           SKY/WX    TMP DP  RH WIND       PRES   REMARKS
HAVRE          CLEAR     53  51  93 SW3       30.14R
LEWISTOWN      CLEAR     57  44  62 SE7       30.23S
CHINOOK          N/A     59  52  77 E7        30.13S
$$

MTZ017>020-022>027-061-062-311400-
NORTHEAST MONTANA

CITY           SKY/WX    TMP DP  RH WIND       PRES   REMARKS
GLASGOW        SUNNY     62  49  62 E8        30.17R
JORDAN           N/A     53  47  79 CALM      30.18S
SIDNEY         SUNNY     55  50  82 S6        30.17S
WOLF POINT     SUNNY     55  51  86 CALM      30.18R
MALTA            N/A     56  51  83 CALM      30.12S
PLENTYWOOD       N/A     55  52  88 W3        30.17S
POPLAR           N/A     55  52  88 SW3       30.18S
SCOBEY           N/A     53  49  86 N2        30.17R
$$

MTZ028>42-056>058-311400-
SOUTHCENTRAL AND SOUTHEAST MONTANA

CITY           SKY/WX    TMP DP  RH WIND       PRES   REMARKS
BAKER          SUNNY     60  49  66 CALM      30.23S
BILLINGS       CLEAR     58  44  60 SW7       30.24R
LIVINGSTON     CLEAR     53  42  66 NW5       30.31S
MILES CITY     SUNNY     62  48  60 CALM      30.19S
EKALAKA          N/A     65  46  50 SE7       30.21S
FORSYTH          N/A     63  50  63 CALM      30.19S
LAUREL           N/A     55  42  61 CALM      30.21R
ROUNDUP          N/A     54  41  61 S8        30.12S
$$

REGIONAL REPORTS...DAKOTAS

CITY           SKY/WX    TMP DP  RH WIND       PRES   REMARKS
WILLISTON      SUNNY     61  53  75 SW3       30.16S
MINOT          SUNNY     63  52  67 NW6       30.14R
DICKINSON      SUNNY     63  51  65 SW5       30.18S
BEACH          FAIR      59  50  72 SW3       30.22S
CROSBY         FAIR      57  57 100 S3        30.16F
BISMARCK       SUNNY     59  53  80 W3        30.18S
GRAND FORKS    MOSUNNY   64  54  69 W9        30.06R
FARGO          SUNNY     62  54  74 W12       30.09R
BUFFALO SD       N/A     56  47  71 W5        30.18S
RAPID CITY     SUNNY     65  51  60 CALM      30.22S
$$

REGIONAL REPORTS...WYOMING/IDAHO/WASHINGTON

CITY           SKY/WX    TMP DP  RH WIND       PRES   REMARKS
GILLETTE       SUNNY     64  46  52 SE5       30.27S
SHERIDAN       SUNNY     56  46  69 CALM      30.25S
BUFFALO WY     SUNNY     68  38  33 W7        30.31S
CODY           CLEAR     63  36  36 SW3       30.32S
YELLOWSTONE LA   N/A     37  33  85 NW3       30.54R
IDAHO FALLS    CLEAR     44  41  89 N5        30.30R
SALMON         CLEAR     48  43  81 CALM      30.31R
BOISE          CLEAR     66  36  32 E7        30.15R
SPOKANE        PTCLDY    65  40  39 NE3       30.12R
$$

REGIONAL REPORTS...ALBERTA

CITY           SKY/WX    TMP DP  RH WIND       PRES   REMARKS
EDMONTON       CLEAR     61  50  67 S8        30.12S
CALGARY        PTCLDY    50  43  76 NE3       30.19F
LETHBRIDGE     CLEAR     46  45  93 SW9       30.18R
MEDICINE HAT   PTCLDY    59  46  63 E5        30.13S
WATERTON GATE    N/A     59  39  47 S8          N/A
ONEFOUR          N/A     59  48  67 E10         N/A
$$

REGIONAL REPORTS...SASKATCHEWAN

CITY           SKY/WX    TMP DP  RH WIND       PRES   REMARKS
SWIFT CURRENT  SUNNY     55  50  82 SE6       30.19S
REGINA         MOSUNNY   57  54  88 W3        30.18R
SASKATOON      PTSUNNY   54  50  87 W6        30.17R
CYPRESS HILLS    N/A     61  45  55 SE6         N/A
VAL MARIE        N/A     52  50  93 NE6         N/A
ROCKGLEN         N/A     55  52  88 SW3         N/A
$$


USA.gov is the U.S. government's official web portal to all federal, state and local government web resources and services.